Weather History for Saranac Lake, NY

Change the Weather History Date:

Saturday, June 8, 2013

  Actual Average Record
Temperature  
Mean Temperature 54 °F 58 °F  
Max Temperature 57 °F 70 °F 90 °F (2007)
Min Temperature 50 °F 45 °F 28 °F (1988)
Degree Days  
Heating Degree Days 12    
Cooling Degree Days 0 1  
Month to date cooling degree days 8 7  
Year to date cooling degree days 18 10  
Since 1 June cooling degree days 8 7  
Growing Degree Days 2 (Base 50)    
Moisture  
Dew Point 51 °F    
Average Humidity 93    
Maximum Humidity 100    
Minimum Humidity 86    
Precipitation  
Precipitation 0.29 in 0.13 in 0.97 in (1987)
Month to date precipitation 2.70 1.02  
Year to date precipitation 13.70 13.37  
Sea Level Pressure  
Sea Level Pressure 29.85 in    
Wind  
Wind Speed 3 mph (NW)    
Max Wind Speed 9 mph    
Max Gust Speed 15 mph    
Visibility 5 miles    
Events Rain    
T = Trace of Precipitation, MM = Missing Value Source: NWS Daily Summary

Daily Weather History Graph

Daily Weather History Graph

Search for Another Location

Airport:

Trip Planner

Search our weather history database for the weather conditions in past years. The results will help you decide how hot, cold, wet, or windy it might be!

Date:

Astronomy

Jun. 08, 2013 Rise Set
Actual Time 5:12 AM EDT 8:39 PM EDT
Civil Twilight 4:36 AM EDT 9:15 PM EDT
Nautical Twilight 3:48 AM EDT 10:03 PM EDT
Astronomical Twilight 2:48 AM EDT 11:04 PM EDT
Moon 5:20 AM EDT (6/8) 8:37 PM EDT (6/8)
Length of Visible Light 16h 39m
Length of Day
15h 26m
New Moon, 0% of the Moon is Illuminated
Jun 8
New Moon
Jun 16
First Quarter
Jun 23
Full
Jun 30
Last Quarter
Jul 8
New

Hourly Weather History & Observations

Time (EDT) Temp. Dew Point Humidity Pressure Visibility Wind Dir Wind Speed Gust Speed Precip Events Conditions
12:51 AM 51.1 °F 50.0 °F 96% 29.83 in 4.0 mi ENE 4.6 mph - 0.04 in Rain Light Rain
1:01 AM 51.8 °F 50.0 °F 94% 29.83 in 1.8 mi ENE 4.6 mph - 0.05 in Rain Heavy Rain
1:09 AM 51.8 °F 50.0 °F 94% 29.82 in 2.0 mi NE 3.5 mph - 0.07 in Rain Rain
1:23 AM 51.8 °F 50.0 °F 94% 29.82 in 4.0 mi NE 3.5 mph - 0.08 in Rain Light Rain
1:48 AM 51.8 °F 50.0 °F 94% 29.81 in 2.5 mi NNE 3.5 mph - 0.10 in Rain Light Rain
1:51 AM 51.1 °F 50.0 °F 96% 29.81 in 3.0 mi NE 4.6 mph - 0.10 in Rain Light Rain
2:00 AM 51.8 °F 50.0 °F 94% 29.80 in 3.0 mi NNE 3.5 mph - 0.01 in Rain Light Rain
2:11 AM 51.8 °F 50.0 °F 94% 29.80 in 5.0 mi Calm Calm - 0.01 in Rain Light Rain
2:20 AM 51.8 °F 50.0 °F 94% 29.80 in 2.5 mi NE 3.5 mph - 0.02 in Rain Light Rain
2:51 AM 51.1 °F 50.0 °F 96% 29.80 in 2.5 mi Calm Calm - 0.08 in Rain Rain
3:06 AM 51.8 °F 50.0 °F 94% 29.79 in 3.0 mi Calm Calm - 0.02 in Rain Light Rain
3:20 AM 51.8 °F 50.0 °F 94% 29.79 in 3.0 mi NE 3.5 mph - 0.03 in Rain Light Rain
3:33 AM 51.8 °F 50.0 °F 94% 29.79 in 2.5 mi Calm Calm - 0.04 in Rain Light Rain
3:40 AM 51.8 °F 50.0 °F 94% 29.79 in 3.0 mi Calm Calm - 0.04 in Rain Light Rain
3:48 AM 51.8 °F 50.0 °F 94% 29.79 in 4.0 mi Calm Calm - 0.04 in Rain Light Rain
3:51 AM 51.1 °F 50.0 °F 96% 29.79 in 4.0 mi Calm Calm - 0.04 in Rain Light Rain
4:09 AM 51.8 °F 50.0 °F 94% 29.78 in 3.0 mi Calm Calm - 0.02 in Rain Light Rain
4:24 AM 50.0 °F 50.0 °F 100% 29.78 in 3.0 mi Calm Calm - 0.03 in Rain Light Rain
4:47 AM 50.0 °F 50.0 °F 100% 29.78 in 3.0 mi Calm Calm - 0.04 in Rain Light Rain
4:51 AM 50.0 °F 50.0 °F 100% 29.79 in 2.5 mi Calm Calm - 0.05 in Rain Light Rain
5:06 AM 50.0 °F 50.0 °F 100% 29.78 in 2.5 mi Calm Calm - 0.01 in Rain Light Rain
5:09 AM 50.0 °F 50.0 °F 100% 29.78 in 3.0 mi Calm Calm - 0.01 in Rain Light Rain
5:23 AM 50.0 °F 50.0 °F 100% 29.78 in 3.0 mi Calm Calm - 0.02 in Rain Light Rain
5:41 AM 50.0 °F 50.0 °F 100% 29.78 in 2.5 mi Calm Calm - 0.03 in Rain Light Rain
5:51 AM 50.0 °F 50.0 °F 100% 29.79 in 1.5 mi Calm Calm - 0.03 in Rain Light Rain
6:07 AM 50.0 °F 50.0 °F 100% 29.79 in 2.0 mi Calm Calm - 0.01 in Rain Light Rain
6:14 AM 50.0 °F 50.0 °F 100% 29.78 in 1.5 mi Calm Calm - 0.02 in Rain Light Rain
6:28 AM 51.8 °F 50.0 °F 94% 29.79 in 2.5 mi Calm Calm - 0.02 in Rain Light Rain
6:36 AM 51.8 °F 50.0 °F 94% 29.79 in 4.0 mi Calm Calm - 0.03 in   Overcast
6:51 AM 51.1 °F 50.0 °F 96% 29.80 in 5.0 mi Calm Calm - 0.03 in   Overcast
6:59 AM 51.8 °F 50.0 °F 94% 29.79 in 5.0 mi Calm Calm - N/A   Overcast
7:51 AM 52.0 °F 51.1 °F 97% 29.81 in 4.0 mi Calm Calm - N/A   Overcast
8:51 AM 54.0 °F 52.0 °F 93% 29.83 in 5.0 mi Calm Calm - N/A   Overcast
9:51 AM 55.0 °F 53.1 °F 93% 29.83 in 7.0 mi Variable 3.5 mph - N/A   Overcast
10:51 AM 55.0 °F 53.1 °F 93% 29.85 in 10.0 mi West 5.8 mph - N/A   Overcast
11:51 AM 54.0 °F 53.1 °F 97% 29.88 in 4.0 mi Variable 3.5 mph - N/A   Overcast
12:51 PM 55.9 °F 53.1 °F 90% 29.89 in 8.0 mi Variable 3.5 mph - N/A   Overcast
1:51 PM 55.9 °F 52.0 °F 87% 29.90 in 10.0 mi Variable 3.5 mph - N/A   Overcast
2:00 PM 55.4 °F 51.8 °F 88% 29.89 in 10.0 mi West 6.9 mph - N/A   Overcast
2:51 PM 55.9 °F 52.0 °F 87% 29.92 in 10.0 mi West 5.8 mph - N/A   Overcast
3:05 PM 55.4 °F 53.6 °F 94% 29.92 in 10.0 mi Variable 4.6 mph - N/A   Overcast
3:23 PM 55.4 °F 51.8 °F 88% 29.92 in 10.0 mi Variable 3.5 mph - N/A   Overcast
3:51 PM 55.9 °F 53.1 °F 90% 29.94 in 10.0 mi Variable 3.5 mph - N/A   Overcast
4:18 PM 55.4 °F 51.8 °F 88% 29.93 in 10.0 mi Variable 5.8 mph - N/A   Overcast
4:51 PM 55.0 °F 52.0 °F 89% 29.96 in 10.0 mi WSW 6.9 mph - N/A   Overcast
5:51 PM 54.0 °F 52.0 °F 93% 29.98 in 10.0 mi West 4.6 mph - N/A   Overcast
6:51 PM 55.0 °F 52.0 °F 89% 29.99 in 10.0 mi WSW 3.5 mph - N/A   Overcast
7:26 PM 55.4 °F 53.6 °F 94% 29.98 in 10.0 mi WSW 3.5 mph - N/A   Overcast
7:51 PM 55.0 °F 53.1 °F 93% 29.99 in 10.0 mi Calm Calm - N/A   Overcast
8:51 PM 55.0 °F 53.1 °F 93% 29.99 in 10.0 mi SW 3.5 mph - N/A   Overcast
9:04 PM 55.4 °F 53.6 °F 94% 29.99 in 10.0 mi Calm Calm - N/A   Overcast
9:51 PM 55.0 °F 53.1 °F 93% 30.02 in 4.0 mi WSW 3.5 mph - N/A   Overcast
10:51 PM 55.0 °F 53.1 °F 93% 30.04 in 10.0 mi Variable 4.6 mph - N/A   Overcast
11:51 PM 55.0 °F 53.1 °F 93% 30.04 in 7.0 mi WSW 4.6 mph - N/A   Overcast